BCS839 EDDF-OBBI

Flight info

Callsign BCS839
Flight time 5h 56m
Altitude 33000
Route SULUS7S SULUS L984 OKG DCT ROMIS DCT PITOK DCT PERIT DCT BADOR DCT APROB/N0479F350 DCT ADORU UN739 TUMER UT38 VESAR/N0489F340 DCT PASOS/N0484F350 L550 KARIK B411 DEESA Y415 TAMRO N318 NADEN/N0445F210 N318 LADNA
Aircraft B77L/H-SDE1E2E3FGHIJ2J3J4J5M1RWXY/LB1D1

Departure

Time 2026-05-04 06:28
Airport Frankfurt Main Airport (EDDF)

Arrival

Time 2026-05-04 12:24
Airport Bahrain International Airport (OBBI)
Time Latitude Longitude Altitude Speed Heading
2026-05-04 06:03 50.03723 8.53092 347 ft 0 kts 340°
2026-05-04 06:20 50.03652 8.53142 356 ft 4 kts 298°
2026-05-04 06:20 50.03645 8.53181 356 ft 4 kts 269°
2026-05-04 06:21 50.03654 8.53255 356 ft 0 kts 249°
2026-05-04 06:25 50.03539 8.53053 349 ft 8 kts 201°
2026-05-04 06:25 50.03503 8.52991 351 ft 8 kts 243°
2026-05-04 06:26 50.03481 8.52912 345 ft 8 kts 247°
2026-05-04 06:26 50.03459 8.52832 339 ft 8 kts 247°
2026-05-04 06:26 50.03438 8.52752 338 ft 8 kts 250°
2026-05-04 06:26 50.03419 8.52671 335 ft 8 kts 250°
2026-05-04 06:27 50.02526 8.52602 336 ft 114 kts 180°
2026-05-04 06:28 50.01547 8.52611 339 ft 164 kts 180°
2026-05-04 06:28 50.00323 8.52626 574 ft 180 kts 180°
2026-05-04 06:28 49.99052 8.52618 1048 ft 183 kts 181°
2026-05-04 06:28 49.97778 8.52597 1628 ft 182 kts 179°
2026-05-04 06:29 49.96585 8.53237 2004 ft 193 kts 140°
2026-05-04 06:29 49.95796 8.55001 2172 ft 211 kts 120°
2026-05-04 06:29 49.95059 8.57082 2498 ft 225 kts 122°
2026-05-04 06:29 49.94284 8.59248 2958 ft 232 kts 116°
2026-05-04 06:30 49.93936 8.61768 3246 ft 251 kts 93°
2026-05-04 06:30 49.93888 8.64565 3588 ft 265 kts 94°
2026-05-04 06:30 49.93769 8.67463 4205 ft 270 kts 101°
2026-05-04 06:30 49.93034 8.70133 4743 ft 272 kts 134°
2026-05-04 06:31 49.91593 8.71975 5391 ft 269 kts 148°
2026-05-04 06:31 49.90038 8.73665 6022 ft 275 kts 147°
2026-05-04 06:31 49.88514 8.75467 6667 ft 277 kts 136°
2026-05-04 06:31 49.87435 8.77999 7116 ft 286 kts 119°
2026-05-04 06:32 49.86516 8.80716 7741 ft 290 kts 121°
2026-05-04 06:33 49.79068 9.01306 10933 ft 370 kts 122°
2026-05-04 06:34 49.77784 9.04831 11443 ft 382 kts 122°
2026-05-04 06:34 49.76471 9.08451 12141 ft 387 kts 120°
2026-05-04 06:34 49.75478 9.12353 12773 ft 397 kts 107°
2026-05-04 06:34 49.74855 9.16545 13605 ft 401 kts 103°
2026-05-04 06:35 49.74273 9.20771 14429 ft 403 kts 104°
2026-05-04 06:36 49.69402 9.51118 19277 ft 431 kts 107°
2026-05-04 06:37 49.68665 9.55638 19790 ft 436 kts 107°
2026-05-04 06:37 49.67868 9.60190 20332 ft 440 kts 108°
2026-05-04 06:37 49.67139 9.64794 20807 ft 442 kts 102°
2026-05-04 06:37 49.67155 9.69595 21040 ft 457 kts 79°
2026-05-04 06:38 49.68101 9.74285 21462 ft 459 kts 72°
2026-05-04 06:38 49.69045 9.79038 21911 ft 465 kts 76°
2026-05-04 06:40 49.79049 10.10654 25340 ft 487 kts 53°
2026-05-04 06:40 49.81047 10.14855 25807 ft 490 kts 54°
2026-05-04 06:40 49.83055 10.19152 26230 ft 494 kts 54°
2026-05-04 06:40 49.85058 10.23496 26646 ft 498 kts 54°
2026-05-04 06:41 49.87074 10.27897 27074 ft 502 kts 54°
2026-05-04 06:41 49.89096 10.32329 27504 ft 505 kts 54°
2026-05-04 06:41 49.91131 10.36793 27911 ft 508 kts 54°
2026-05-04 06:41 49.93179 10.41288 28333 ft 511 kts 54°
2026-05-04 06:42 49.95238 10.45811 28729 ft 515 kts 54°
2026-05-04 06:42 49.97312 10.50372 29119 ft 517 kts 54°
2026-05-04 06:42 49.99392 10.54955 29500 ft 519 kts 55°
2026-05-04 06:44 50.07584 10.88514 31786 ft 511 kts 94°
2026-05-04 06:44 50.07525 10.94042 32164 ft 510 kts 92°
2026-05-04 06:44 50.07505 10.99561 32602 ft 508 kts 92°
2026-05-04 06:45 50.07506 11.04939 33001 ft 507 kts 92°
2026-05-04 06:45 50.07511 11.10375 33024 ft 511 kts 92°
2026-05-04 06:45 50.07506 11.21422 33004 ft 508 kts 92°
2026-05-04 06:46 50.07469 11.32391 33020 ft 505 kts 92°
2026-05-04 06:46 50.07414 11.43305 33012 ft 504 kts 92°
2026-05-04 06:48 50.07114 11.87063 33007 ft 508 kts 92°
2026-05-04 06:50 50.06631 12.30752 33021 ft 509 kts 92°
2026-05-04 06:51 50.06307 12.41784 33006 ft 510 kts 98°
2026-05-04 06:51 50.04952 12.52598 33023 ft 509 kts 104°
2026-05-04 06:52 50.03391 12.63338 33033 ft 509 kts 104°
2026-05-04 06:52 50.01849 12.74094 33033 ft 509 kts 104°
2026-05-04 06:53 50.00327 12.84862 33034 ft 509 kts 104°
2026-05-04 06:53 49.98811 12.95588 33025 ft 507 kts 104°
2026-05-04 06:54 49.97312 13.06119 33028 ft 506 kts 104°
2026-05-04 06:54 49.95779 13.16792 33013 ft 505 kts 104°
2026-05-04 06:55 49.94240 13.27428 33014 ft 504 kts 104°
2026-05-04 06:55 49.92693 13.38041 33016 ft 504 kts 105°
2026-05-04 06:57 49.86406 13.80461 33010 ft 504 kts 105°
2026-05-04 06:58 49.84820 13.90977 33006 ft 504 kts 105°
2026-05-04 06:58 49.83234 14.01434 33006 ft 503 kts 105°
2026-05-04 06:59 49.81623 14.11980 33011 ft 503 kts 105°
2026-05-04 06:59 49.80006 14.22500 32999 ft 503 kts 105°
2026-05-04 07:01 49.73426 14.64600 32987 ft 505 kts 105°
2026-05-04 07:02 49.71753 14.75137 32997 ft 505 kts 105°
2026-05-04 07:02 49.70079 14.85611 33006 ft 504 kts 105°
2026-05-04 07:03 49.68388 14.96125 33003 ft 504 kts 105°
2026-05-04 07:03 49.66708 15.06509 33008 ft 504 kts 105°
2026-05-04 07:04 49.64999 15.17003 33006 ft 503 kts 105°
2026-05-04 07:04 49.63296 15.27394 33017 ft 502 kts 105°
2026-05-04 07:05 49.61575 15.37831 33000 ft 502 kts 105°
2026-05-04 07:05 49.59845 15.48256 33027 ft 501 kts 105°
2026-05-04 07:06 49.57236 15.63862 33031 ft 501 kts 106°
2026-05-04 07:07 49.55488 15.74246 33030 ft 501 kts 106°
2026-05-04 07:09 49.48426 16.15545 33034 ft 501 kts 106°
2026-05-04 07:09 49.46631 16.25891 33035 ft 501 kts 106°
2026-05-04 07:10 49.44828 16.36220 33038 ft 500 kts 106°
2026-05-04 07:12 49.37526 16.77458 33042 ft 500 kts 106°
2026-05-04 07:12 49.35691 16.87676 33047 ft 500 kts 106°
2026-05-04 07:13 49.33835 16.97951 33057 ft 499 kts 106°
2026-05-04 07:13 49.31998 17.08065 33055 ft 500 kts 106°
2026-05-04 07:14 49.27264 17.33673 33067 ft 501 kts 105°
2026-05-04 07:15 49.25396 17.43960 33076 ft 502 kts 105°
2026-05-04 07:15 49.23484 17.54251 33080 ft 503 kts 106°
2026-05-04 07:16 49.21551 17.64549 33079 ft 504 kts 106°
2026-05-04 07:16 49.19622 17.74780 33077 ft 503 kts 106°
2026-05-04 07:17 49.17676 17.85060 33085 ft 502 kts 106°
2026-05-04 07:17 49.15728 17.95299 33083 ft 502 kts 106°
2026-05-04 07:18 49.13733 18.05410 33075 ft 500 kts 105°
2026-05-04 07:18 49.11433 18.15319 33091 ft 499 kts 115°
2026-05-04 07:19 49.08222 18.24738 33101 ft 501 kts 118°
2026-05-04 07:19 49.04898 18.34107 33101 ft 503 kts 118°
2026-05-04 07:20 49.01623 18.43542 33115 ft 503 kts 117°
2026-05-04 07:20 48.98364 18.52964 33110 ft 503 kts 117°
2026-05-04 07:22 48.85371 18.90353 33123 ft 497 kts 117°
2026-05-04 07:23 48.82120 18.99624 33135 ft 496 kts 117°
2026-05-04 07:23 48.78925 19.08703 33128 ft 496 kts 117°
2026-05-04 07:24 48.75633 19.17922 33132 ft 496 kts 118°
2026-05-04 07:24 48.72353 19.27089 33155 ft 494 kts 115°
2026-05-04 07:26 48.59287 19.63875 33156 ft 496 kts 116°
2026-05-04 07:27 48.56028 19.73008 33162 ft 498 kts 117°
2026-05-04 07:27 48.52672 19.82178 33152 ft 499 kts 117°
2026-05-04 07:28 48.49306 19.91365 33136 ft 499 kts 117°
2026-05-04 07:28 48.46528 19.98985 33161 ft 499 kts 117°
2026-05-04 07:29 48.42679 20.09545 33152 ft 499 kts 117°
2026-05-04 07:29 48.39326 20.18691 33159 ft 498 kts 117°
2026-05-04 07:30 48.36536 20.26269 33158 ft 497 kts 117°
2026-05-04 07:30 48.32632 20.36832 33161 ft 496 kts 117°
2026-05-04 07:31 48.29617 20.44241 33162 ft 496 kts 120°
2026-05-04 07:33 48.14801 20.79050 33161 ft 494 kts 120°
2026-05-04 07:33 48.11104 20.87721 33164 ft 494 kts 120°
2026-05-04 07:34 48.07397 20.96382 33161 ft 493 kts 120°
2026-05-04 07:34 48.03738 21.04905 33164 ft 493 kts 120°
2026-05-04 07:35 48.00033 21.13507 33166 ft 492 kts 120°
2026-05-04 07:35 47.96357 21.22015 33164 ft 492 kts 120°
2026-05-04 07:36 47.92640 21.30592 33170 ft 491 kts 120°
2026-05-04 07:38 47.77676 21.64619 33159 ft 487 kts 121°
2026-05-04 07:38 47.73987 21.73043 33164 ft 486 kts 120°
2026-05-04 07:39 47.70359 21.81542 33182 ft 488 kts 120°
2026-05-04 07:39 47.66631 21.90011 33179 ft 490 kts 121°
2026-05-04 07:40 47.62895 21.98424 33180 ft 491 kts 120°
2026-05-04 07:40 47.59066 22.06722 33166 ft 493 kts 127°
2026-05-04 07:41 47.54040 22.13712 33164 ft 498 kts 141°
2026-05-04 07:41 47.48140 22.19014 33178 ft 499 kts 148°
2026-05-04 07:42 47.42089 22.24089 33175 ft 499 kts 147°
2026-05-04 07:42 47.36066 22.29188 33173 ft 499 kts 147°
2026-05-04 07:43 47.30090 22.34298 33166 ft 499 kts 147°
2026-05-04 07:43 47.24085 22.39441 33166 ft 499 kts 147°
2026-05-04 07:44 47.18063 22.44586 33193 ft 499 kts 147°
2026-05-04 07:44 47.12078 22.49682 33169 ft 499 kts 147°
2026-05-04 07:45 47.06060 22.54791 33201 ft 500 kts 147°
2026-05-04 07:45 47.03036 22.57352 33510 ft 500 kts 147°
2026-05-04 07:45 47.00020 22.59904 33922 ft 499 kts 147°
2026-05-04 07:46 46.97065 22.62400 34314 ft 497 kts 147°
2026-05-04 07:46 46.94077 22.64921 34663 ft 495 kts 147°
2026-05-04 07:46 46.91086 22.67441 35028 ft 494 kts 147°
2026-05-04 07:46 46.88099 22.69956 35119 ft 497 kts 147°
2026-05-04 07:47 46.82101 22.74995 35138 ft 495 kts 147°
2026-05-04 07:49 46.58391 22.94785 35150 ft 491 kts 147°
2026-05-04 07:49 46.52447 22.99715 35140 ft 491 kts 147°
2026-05-04 07:50 46.46589 23.04561 35141 ft 491 kts 147°
2026-05-04 07:50 46.40640 23.09471 35155 ft 491 kts 147°
2026-05-04 07:51 46.34726 23.14338 35141 ft 492 kts 147°
2026-05-04 07:51 46.28776 23.19224 35136 ft 492 kts 147°
2026-05-04 07:52 46.22821 23.24100 35133 ft 492 kts 147°
2026-05-04 07:52 46.16863 23.28967 35143 ft 492 kts 147°
2026-05-04 07:54 45.93011 23.48330 35138 ft 491 kts 147°
2026-05-04 07:55 45.87058 23.53132 35151 ft 490 kts 147°
2026-05-04 07:55 45.81100 23.57928 35135 ft 491 kts 147°
2026-05-04 07:56 45.75179 23.62680 35147 ft 491 kts 147°
2026-05-04 07:56 45.69215 23.67457 35142 ft 491 kts 146°
2026-05-04 07:57 45.63236 23.72232 35140 ft 492 kts 146°
2026-05-04 07:57 45.57251 23.77004 35127 ft 493 kts 146°
2026-05-04 07:58 45.51241 23.81781 35120 ft 495 kts 146°
2026-05-04 07:58 45.45258 23.86525 35127 ft 496 kts 146°
2026-05-04 07:59 45.39214 23.91305 35126 ft 497 kts 146°
2026-05-04 07:59 45.33161 23.96081 35102 ft 495 kts 147°
2026-05-04 08:00 45.27216 24.00759 35094 ft 493 kts 147°
2026-05-04 08:02 45.03471 24.19336 35089 ft 485 kts 147°
2026-05-04 08:02 44.97582 24.23917 35096 ft 484 kts 147°
2026-05-04 08:03 44.91719 24.28467 35107 ft 484 kts 147°
2026-05-04 08:03 44.85807 24.33044 35109 ft 485 kts 148°
2026-05-04 08:04 44.79869 24.37630 35107 ft 487 kts 148°
2026-05-04 08:04 44.73925 24.42210 35103 ft 487 kts 148°
2026-05-04 08:05 44.67964 24.46791 35111 ft 488 kts 148°
2026-05-04 08:05 44.61989 24.51373 35117 ft 489 kts 148°
2026-05-04 08:06 44.56006 24.55950 35109 ft 489 kts 148°
2026-05-04 08:06 44.50064 24.60484 35109 ft 489 kts 148°
2026-05-04 08:08 44.29156 24.76162 35127 ft 478 kts 149°
2026-05-04 08:08 44.26249 24.78400 35113 ft 478 kts 148°
2026-05-04 08:11 44.00033 24.98286 35108 ft 476 kts 149°
2026-05-04 08:11 43.91371 25.04823 35111 ft 477 kts 148°
2026-05-04 08:12 43.85587 25.09290 35105 ft 471 kts 149°
2026-05-04 08:12 43.79947 25.13576 35105 ft 465 kts 147°
2026-05-04 08:13 43.74307 25.18073 35115 ft 468 kts 148°
2026-05-04 08:13 43.68593 25.22459 35123 ft 471 kts 149°
2026-05-04 08:14 43.62814 25.26807 35102 ft 470 kts 151°
2026-05-04 08:16 43.40048 25.44043 35106 ft 463 kts 150°
2026-05-04 08:16 43.34415 25.48339 35121 ft 462 kts 148°
2026-05-04 08:17 43.28801 25.52659 35126 ft 462 kts 149°
2026-05-04 08:17 43.23159 25.56936 35132 ft 463 kts 149°
2026-05-04 08:19 43.01397 25.73253 35131 ft 468 kts 149°
2026-05-04 08:20 42.95727 25.77484 35119 ft 468 kts 149°
2026-05-04 08:20 42.90006 25.81745 35111 ft 468 kts 149°
2026-05-04 08:21 42.84278 25.86001 35101 ft 467 kts 149°
2026-05-04 08:21 42.78571 25.90233 35100 ft 467 kts 149°
2026-05-04 08:22 42.72864 25.94456 35110 ft 466 kts 149°
2026-05-04 08:24 42.50201 26.11138 35095 ft 465 kts 149°
2026-05-04 08:24 42.44503 26.15309 35091 ft 465 kts 149°
2026-05-04 08:25 42.38806 26.19472 35095 ft 465 kts 149°
2026-05-04 08:25 42.33106 26.23629 35094 ft 465 kts 149°
2026-05-04 08:27 42.10320 26.40160 35095 ft 466 kts 149°
2026-05-04 08:28 42.04604 26.44286 35083 ft 466 kts 149°
2026-05-04 08:28 41.98898 26.48396 35092 ft 466 kts 149°
2026-05-04 08:29 41.93174 26.52512 35101 ft 466 kts 149°
2026-05-04 08:31 41.71638 26.71516 35080 ft 465 kts 142°
2026-05-04 08:33 41.50410 26.91462 35075 ft 467 kts 142°
2026-05-04 08:35 41.29118 27.11275 35072 ft 469 kts 143°
2026-05-04 08:35 41.23764 27.16235 35072 ft 469 kts 142°
2026-05-04 08:37 41.05042 27.33483 35070 ft 468 kts 143°
2026-05-04 08:38 40.99682 27.38402 35062 ft 469 kts 142°
2026-05-04 08:38 40.94321 27.43312 35062 ft 469 kts 142°
2026-05-04 08:40 40.72968 27.63140 35057 ft 470 kts 142°
2026-05-04 08:41 40.67637 27.68065 35062 ft 471 kts 142°
2026-05-04 08:41 40.62270 27.73012 35064 ft 471 kts 142°
2026-05-04 08:42 40.56891 27.77961 35047 ft 472 kts 142°
2026-05-04 08:42 40.51506 27.82906 35052 ft 472 kts 142°
2026-05-04 08:43 40.46117 27.87845 35061 ft 472 kts 142°
2026-05-04 08:43 40.40713 27.92788 35047 ft 473 kts 142°
2026-05-04 08:44 40.35304 27.97725 35053 ft 473 kts 142°
2026-05-04 08:46 40.13663 28.17347 35045 ft 477 kts 142°
2026-05-04 08:46 40.08246 28.22273 35032 ft 478 kts 142°
2026-05-04 08:47 40.02777 28.27213 35031 ft 479 kts 142°
2026-05-04 08:47 39.97290 28.32151 35027 ft 480 kts 142°
2026-05-04 08:48 39.91784 28.37096 35042 ft 482 kts 142°
2026-05-04 08:48 39.86248 28.42060 35018 ft 483 kts 142°
2026-05-04 08:49 39.80690 28.47032 35016 ft 484 kts 142°
2026-05-04 08:50 39.61245 28.64322 35026 ft 487 kts 143°
2026-05-04 08:51 39.55637 28.69335 35013 ft 489 kts 143°
2026-05-04 08:51 39.50009 28.74319 35015 ft 491 kts 143°
2026-05-04 08:52 39.44387 28.79266 35007 ft 490 kts 144°
2026-05-04 08:52 39.38695 28.84130 35015 ft 492 kts 141°
2026-05-04 08:54 39.16068 29.03940 34975 ft 496 kts 143°
2026-05-04 08:55 39.10391 29.09038 34980 ft 499 kts 143°
2026-05-04 08:55 39.04645 29.14116 34974 ft 501 kts 143°
2026-05-04 09:01 38.50716 29.74905 34921 ft 500 kts 124°
2026-05-04 09:01 38.46598 29.82097 34920 ft 502 kts 124°
2026-05-04 09:02 38.42464 29.89307 34924 ft 503 kts 124°
2026-05-04 09:02 38.38316 29.96526 34930 ft 504 kts 124°
2026-05-04 09:03 38.34209 30.03661 34925 ft 504 kts 124°
2026-05-04 09:03 38.30080 30.10821 34927 ft 505 kts 124°
2026-05-04 09:04 38.25918 30.18001 34921 ft 503 kts 123°
2026-05-04 09:04 38.21807 30.25245 34932 ft 505 kts 125°
2026-05-04 09:05 38.17597 30.32441 34933 ft 507 kts 125°
2026-05-04 09:05 38.13392 30.39647 34937 ft 509 kts 125°
2026-05-04 09:06 38.09178 30.46892 34932 ft 510 kts 125°
2026-05-04 09:08 37.92237 30.75882 34899 ft 512 kts 125°
2026-05-04 09:08 37.88697 30.81921 34894 ft 513 kts 125°
2026-05-04 09:09 37.84438 30.89175 34893 ft 513 kts 125°
2026-05-04 09:09 37.80166 30.96435 34903 ft 513 kts 125°
2026-05-04 09:10 37.75940 31.03598 34885 ft 514 kts 126°
2026-05-04 09:10 37.71683 31.10798 34870 ft 515 kts 126°
2026-05-04 09:11 37.67382 31.18058 34870 ft 516 kts 126°
2026-05-04 09:11 37.63079 31.25304 34882 ft 516 kts 126°
2026-05-04 09:12 37.58765 31.32555 34847 ft 517 kts 126°
2026-05-04 09:14 37.41464 31.61476 34827 ft 519 kts 126°
2026-05-04 09:14 37.37096 31.68740 34822 ft 520 kts 126°
2026-05-04 09:15 37.32727 31.75973 34817 ft 520 kts 126°
2026-05-04 09:15 37.28343 31.83202 34820 ft 520 kts 127°
2026-05-04 09:17 37.08631 32.15302 34802 ft 512 kts 128°
2026-05-04 09:18 37.04349 32.22448 34808 ft 512 kts 127°
2026-05-04 09:18 37.00047 32.29564 34795 ft 513 kts 128°
2026-05-04 09:19 36.95690 32.36640 34792 ft 513 kts 129°
2026-05-04 09:19 36.91350 32.43645 34790 ft 513 kts 128°
2026-05-04 09:20 36.86996 32.50726 34794 ft 514 kts 128°
2026-05-04 09:20 36.82623 32.57796 34795 ft 515 kts 128°
2026-05-04 09:21 36.78237 32.64862 34799 ft 515 kts 129°
2026-05-04 09:21 36.73845 32.71824 34794 ft 512 kts 128°
2026-05-04 09:22 36.69551 32.78946 34781 ft 514 kts 129°
2026-05-04 09:22 36.65144 32.85985 34803 ft 515 kts 130°
2026-05-04 09:23 36.60713 32.93030 34796 ft 517 kts 130°
2026-05-04 09:23 36.56318 33.00041 34796 ft 517 kts 130°
2026-05-04 09:25 36.38665 33.28119 34803 ft 515 kts 131°
2026-05-04 09:26 36.34244 33.35095 34802 ft 514 kts 131°
2026-05-04 09:26 36.29820 33.42047 34807 ft 513 kts 131°
2026-05-04 09:27 36.25418 33.48955 34798 ft 513 kts 131°
2026-05-04 09:27 36.20987 33.55896 34812 ft 514 kts 131°
2026-05-04 09:28 36.16548 33.62838 34809 ft 515 kts 131°
2026-05-04 09:28 36.12100 33.69780 34801 ft 515 kts 132°
2026-05-04 09:29 36.07635 33.76736 34809 ft 516 kts 132°
2026-05-04 09:29 36.03162 33.83690 34809 ft 517 kts 132°
2026-05-04 09:30 35.98684 33.90638 34812 ft 517 kts 132°
2026-05-04 09:30 35.93810 33.97020 34795 ft 503 kts 152°
2026-05-04 09:31 35.90750 33.98841 34793 ft 490 kts 168°
2026-05-04 09:31 35.87442 33.99717 34821 ft 482 kts 179°
2026-05-04 09:31 35.84123 33.99802 34803 ft 473 kts 192°
2026-05-04 09:31 35.80933 33.99036 34832 ft 465 kts 198°
2026-05-04 09:32 35.74582 33.97270 34829 ft 470 kts 197°
2026-05-04 09:34 35.48730 33.90542 34819 ft 477 kts 197°
2026-05-04 09:34 35.42239 33.88883 34826 ft 476 kts 197°
2026-05-04 09:35 35.35757 33.87228 34822 ft 475 kts 197°
2026-05-04 09:35 35.29294 33.85577 34812 ft 473 kts 197°
2026-05-04 09:37 35.03695 33.79071 34825 ft 468 kts 197°
2026-05-04 09:38 34.97320 33.77457 34827 ft 467 kts 197°
2026-05-04 09:38 34.90960 33.75849 34813 ft 466 kts 198°
2026-05-04 09:39 34.84645 33.74256 34859 ft 467 kts 198°
2026-05-04 09:39 34.78219 33.72631 34840 ft 474 kts 198°
2026-05-04 09:40 34.71788 33.71017 34778 ft 466 kts 198°
2026-05-04 09:40 34.68656 33.70210 34835 ft 452 kts 202°
2026-05-04 09:40 34.65714 33.69025 34908 ft 442 kts 204°
2026-05-04 09:41 34.62713 33.68065 34845 ft 453 kts 195°
2026-05-04 09:42 34.40399 33.63214 34878 ft 465 kts 199°
2026-05-04 09:43 34.34071 33.61589 34893 ft 463 kts 199°
2026-05-04 09:43 34.27770 33.60012 34897 ft 461 kts 199°
2026-05-04 09:44 34.21487 33.58452 34899 ft 459 kts 199°
2026-05-04 09:46 33.96550 33.52280 34936 ft 457 kts 200°
2026-05-04 09:46 33.90308 33.50741 34924 ft 457 kts 200°
2026-05-04 09:47 33.84065 33.49204 34941 ft 457 kts 200°
2026-05-04 09:49 33.59202 33.43106 34958 ft 454 kts 201°
2026-05-04 09:51 33.37618 33.37839 34986 ft 452 kts 201°
2026-05-04 09:51 33.31447 33.36338 34981 ft 452 kts 201°
2026-05-04 09:52 33.25287 33.34843 34985 ft 451 kts 201°
2026-05-04 09:52 33.19125 33.33348 34995 ft 451 kts 201°
2026-05-04 09:53 33.12976 33.31859 35004 ft 451 kts 201°
2026-05-04 09:53 33.06832 33.30374 34986 ft 450 kts 202°
2026-05-04 09:54 33.00737 33.28903 35002 ft 449 kts 202°
2026-05-04 09:54 32.94603 33.27423 35020 ft 449 kts 202°
2026-05-04 09:55 32.88473 33.25947 34971 ft 449 kts 202°
2026-05-04 09:55 32.82354 33.24477 35010 ft 448 kts 202°
2026-05-04 09:56 32.76232 33.23006 35023 ft 448 kts 202°
2026-05-04 09:56 32.71151 33.21787 35033 ft 449 kts 202°
2026-05-04 09:57 32.65026 33.20320 34988 ft 448 kts 202°
2026-05-04 09:57 32.58905 33.18857 35030 ft 448 kts 202°
2026-05-04 09:58 32.52817 33.17402 35045 ft 449 kts 202°
2026-05-04 09:58 32.46684 33.15939 35044 ft 450 kts 202°
2026-05-04 10:00 32.22025 33.10317 35046 ft 461 kts 197°
2026-05-04 10:02 31.99024 33.11174 35051 ft 473 kts 189°
2026-05-04 10:04 31.76032 33.12346 35032 ft 472 kts 189°
2026-05-04 10:04 31.69474 33.12673 35062 ft 472 kts 189°
2026-05-04 10:05 31.62910 33.12998 35072 ft 472 kts 189°
2026-05-04 10:05 31.56345 33.13324 35074 ft 472 kts 189°
2026-05-04 10:06 31.49832 33.13649 35077 ft 471 kts 189°
2026-05-04 10:06 31.43273 33.13974 35070 ft 471 kts 189°
2026-05-04 10:08 31.23960 33.22182 35061 ft 513 kts 161°
2026-05-04 10:08 31.20847 33.24211 35063 ft 512 kts 161°
2026-05-04 10:08 31.14611 33.28221 35064 ft 510 kts 162°
2026-05-04 10:09 31.08364 33.32166 35065 ft 509 kts 162°
2026-05-04 10:09 31.02159 33.36053 35065 ft 509 kts 162°
2026-05-04 10:10 30.95932 33.39949 35069 ft 507 kts 162°
2026-05-04 10:10 30.89715 33.43837 35069 ft 507 kts 162°
2026-05-04 10:11 30.83499 33.47720 35061 ft 507 kts 162°
2026-05-04 10:11 30.77310 33.51580 35072 ft 507 kts 162°
2026-05-04 10:12 30.71084 33.55459 35032 ft 507 kts 162°
2026-05-04 10:12 30.64872 33.59324 35056 ft 506 kts 162°
2026-05-04 10:13 30.58661 33.63182 35070 ft 506 kts 162°
2026-05-04 10:13 30.52457 33.67029 35072 ft 506 kts 162°
2026-05-04 10:14 30.46250 33.70873 35065 ft 505 kts 162°
2026-05-04 10:16 30.21552 33.86113 35088 ft 503 kts 162°
2026-05-04 10:16 30.15370 33.89914 35048 ft 503 kts 162°
2026-05-04 10:17 30.09189 33.93709 35087 ft 503 kts 162°
2026-05-04 10:19 29.84578 34.08768 35061 ft 503 kts 162°
2026-05-04 10:19 29.78389 34.12542 35090 ft 503 kts 162°
2026-05-04 10:20 29.72183 34.16321 35092 ft 504 kts 162°
2026-05-04 10:20 29.66060 34.20176 35080 ft 512 kts 154°
2026-05-04 10:21 29.63394 34.23014 35082 ft 535 kts 136°
2026-05-04 10:21 29.61456 34.26734 35087 ft 552 kts 117°
2026-05-04 10:21 29.60446 34.31038 35085 ft 563 kts 99°
2026-05-04 10:21 29.60369 34.35538 35115 ft 564 kts 90°
2026-05-04 10:22 29.60751 34.49117 35068 ft 568 kts 92°
2026-05-04 10:23 29.59810 34.57978 35090 ft 551 kts 117°
2026-05-04 10:23 29.58147 34.61902 35095 ft 541 kts 130°
2026-05-04 10:25 29.42814 34.85011 35069 ft 563 kts 101°
2026-05-04 10:25 29.42209 34.93977 35066 ft 566 kts 92°
2026-05-04 10:26 29.42784 35.02914 35063 ft 569 kts 82°
2026-05-04 10:26 29.44640 35.11753 35075 ft 570 kts 73°
2026-05-04 10:27 29.46850 35.20507 35074 ft 571 kts 73°
2026-05-04 10:27 29.48963 35.29232 35059 ft 571 kts 75°
2026-05-04 10:28 29.51012 35.38038 35078 ft 572 kts 75°
2026-05-04 10:28 29.53067 35.46875 35053 ft 573 kts 75°
2026-05-04 10:29 29.55137 35.55691 35033 ft 571 kts 74°
2026-05-04 10:29 29.57213 35.64487 35044 ft 569 kts 75°
2026-05-04 10:30 29.59272 35.73271 35044 ft 569 kts 75°
2026-05-04 10:30 29.61289 35.82066 35048 ft 569 kts 78°
2026-05-04 10:31 29.62818 35.90995 35033 ft 570 kts 80°
2026-05-04 10:32 29.67839 36.22274 35025 ft 571 kts 80°
2026-05-04 10:33 29.69282 36.31193 35013 ft 571 kts 81°
2026-05-04 10:33 29.70732 36.40187 35017 ft 572 kts 81°
2026-05-04 10:34 29.72195 36.49178 35025 ft 572 kts 80°
2026-05-04 10:34 29.73656 36.58181 35009 ft 571 kts 81°
2026-05-04 10:35 29.74500 36.67231 35017 ft 566 kts 94°
2026-05-04 10:35 29.73871 36.76201 34995 ft 559 kts 106°
2026-05-04 10:36 29.72138 36.84866 35038 ft 556 kts 109°
2026-05-04 10:36 29.70312 36.93533 35009 ft 558 kts 109°
2026-05-04 10:37 29.68573 37.02046 34992 ft 559 kts 109°
2026-05-04 10:37 29.66831 37.10752 35001 ft 559 kts 108°
2026-05-04 10:39 29.60665 37.41255 34996 ft 560 kts 109°
2026-05-04 10:40 29.58885 37.49977 34981 ft 561 kts 109°
2026-05-04 10:40 29.57095 37.58711 34984 ft 561 kts 109°
2026-05-04 10:41 29.55315 37.67372 34990 ft 561 kts 109°
2026-05-04 10:41 29.53515 37.76098 34977 ft 560 kts 109°
2026-05-04 10:42 29.51711 37.84813 34976 ft 560 kts 109°
2026-05-04 10:42 29.49905 37.93512 34990 ft 559 kts 109°
2026-05-04 10:43 29.48422 38.00654 34981 ft 558 kts 108°
2026-05-04 10:45 29.42275 38.35424 35017 ft 554 kts 107°
2026-05-04 10:45 29.40714 38.44075 35010 ft 554 kts 107°
2026-05-04 10:46 29.39150 38.52722 35050 ft 554 kts 107°
2026-05-04 10:46 29.37590 38.61334 35031 ft 555 kts 107°
2026-05-04 10:47 29.36012 38.70008 35016 ft 556 kts 107°
2026-05-04 10:47 29.34429 38.78683 35023 ft 556 kts 107°
2026-05-04 10:49 29.27541 39.13084 35001 ft 555 kts 109°
2026-05-04 10:50 29.25735 39.21621 35022 ft 555 kts 109°
2026-05-04 10:52 29.18478 39.55887 35020 ft 553 kts 109°
2026-05-04 10:52 29.16650 39.64438 35009 ft 552 kts 109°
2026-05-04 10:54 29.09647 39.98696 35002 ft 557 kts 105°
2026-05-04 10:56 29.04191 40.33440 34992 ft 557 kts 106°
2026-05-04 10:57 29.02783 40.42151 34994 ft 557 kts 106°
2026-05-04 10:57 29.01372 40.50863 34984 ft 557 kts 107°
2026-05-04 10:58 28.99960 40.59548 34998 ft 557 kts 107°
2026-05-04 10:58 28.98549 40.68192 34997 ft 557 kts 107°
2026-05-04 10:59 28.97122 40.76890 34993 ft 557 kts 107°
2026-05-04 10:59 28.95692 40.85585 34991 ft 557 kts 107°
2026-05-04 11:00 28.94257 40.94286 34980 ft 557 kts 107°
2026-05-04 11:02 28.88474 41.28969 34982 ft 557 kts 107°
2026-05-04 11:05 28.77388 41.94062 34970 ft 558 kts 107°
2026-05-04 11:06 28.75903 42.02637 34965 ft 558 kts 107°
2026-05-04 11:06 28.74397 42.11306 34967 ft 558 kts 107°
2026-05-04 11:10 28.62703 42.71629 34947 ft 548 kts 121°
2026-05-04 11:12 28.48528 43.01841 34941 ft 546 kts 126°
2026-05-04 11:12 28.44950 43.09460 34922 ft 546 kts 126°
2026-05-04 11:13 28.41362 43.17078 34928 ft 546 kts 126°
2026-05-04 11:13 28.37772 43.24676 34918 ft 546 kts 126°
2026-05-04 11:14 28.37188 43.25912 34919 ft 546 kts 126°
2026-05-04 11:16 28.19818 43.62479 34913 ft 543 kts 127°
2026-05-04 11:16 28.16225 43.69937 34914 ft 541 kts 127°
2026-05-04 11:17 28.12593 43.77418 34914 ft 541 kts 127°
2026-05-04 11:19 27.98147 44.07134 34899 ft 539 kts 127°
2026-05-04 11:19 27.94524 44.14559 34902 ft 539 kts 127°
2026-05-04 11:20 27.90922 44.22017 34903 ft 540 kts 127°
2026-05-04 11:20 27.87361 44.29448 34900 ft 541 kts 126°
2026-05-04 11:22 27.72955 44.59292 34903 ft 541 kts 127°
2026-05-04 11:23 27.69345 44.66737 34897 ft 541 kts 126°
2026-05-04 11:24 27.61852 44.91072 34904 ft 559 kts 106°
2026-05-04 11:25 27.61124 44.95373 34899 ft 559 kts 106°
2026-05-04 11:25 27.59641 45.03799 34900 ft 558 kts 107°
2026-05-04 11:27 27.52486 45.42263 34903 ft 556 kts 107°
2026-05-04 11:28 27.50872 45.50788 34901 ft 556 kts 107°
2026-05-04 11:28 27.49266 45.59255 34897 ft 556 kts 107°
2026-05-04 11:29 27.47645 45.67777 34898 ft 556 kts 107°
2026-05-04 11:29 27.46018 45.76297 34891 ft 556 kts 107°
2026-05-04 11:33 27.34831 46.34202 34894 ft 556 kts 106°
2026-05-04 11:33 27.33335 46.42741 34902 ft 556 kts 105°
2026-05-04 11:34 27.31886 46.51280 34893 ft 556 kts 105°
2026-05-04 11:34 27.30411 46.59810 34884 ft 555 kts 105°
2026-05-04 11:35 27.28915 46.68317 34885 ft 554 kts 105°
2026-05-04 11:35 27.27409 46.76832 34884 ft 554 kts 105°
2026-05-04 11:36 27.25911 46.85274 34869 ft 554 kts 105°
2026-05-04 11:36 27.24404 46.93752 34878 ft 553 kts 105°
2026-05-04 11:37 27.22915 47.02101 34879 ft 553 kts 105°
2026-05-04 11:37 27.21399 47.10562 34873 ft 552 kts 106°
2026-05-04 11:38 27.19877 47.19030 34873 ft 552 kts 106°
2026-05-04 11:38 27.18353 47.27483 34854 ft 552 kts 106°
2026-05-04 11:39 27.16825 47.35924 34861 ft 551 kts 106°
2026-05-04 11:41 27.11428 47.65341 34834 ft 549 kts 106°
2026-05-04 11:41 27.09855 47.73738 34844 ft 549 kts 106°
2026-05-04 11:42 27.08285 47.82119 34837 ft 548 kts 106°
2026-05-04 11:42 27.06712 47.90498 34839 ft 548 kts 106°
2026-05-04 11:43 27.05129 47.98807 34829 ft 548 kts 107°
2026-05-04 11:43 27.03340 48.06996 34829 ft 546 kts 109°
2026-05-04 11:44 27.01449 48.15248 34828 ft 546 kts 109°
2026-05-04 11:44 26.99586 48.23510 34812 ft 546 kts 108°
2026-05-04 11:45 26.97745 48.31777 34819 ft 546 kts 108°
2026-05-04 11:45 26.95904 48.40035 34808 ft 546 kts 108°
2026-05-04 11:46 26.94053 48.48300 34799 ft 546 kts 108°
2026-05-04 11:46 26.92198 48.56548 34803 ft 546 kts 108°
2026-05-04 11:47 26.90339 48.64793 34798 ft 545 kts 108°
2026-05-04 11:47 26.88476 48.73038 34796 ft 545 kts 108°
2026-05-04 11:48 26.86777 48.81223 34560 ft 536 kts 105°
2026-05-04 11:48 26.86057 48.85316 34069 ft 533 kts 104°
2026-05-04 11:48 26.85358 48.89404 33142 ft 537 kts 104°
2026-05-04 11:48 26.84644 48.93532 32121 ft 543 kts 104°
2026-05-04 11:49 26.83905 48.97705 31125 ft 547 kts 104°
2026-05-04 11:49 26.83168 49.01783 30211 ft 550 kts 104°
2026-05-04 11:49 26.82400 49.05973 29334 ft 549 kts 104°
2026-05-04 11:49 26.81633 49.10136 28714 ft 542 kts 104°
2026-05-04 11:50 26.80877 49.14238 28232 ft 532 kts 104°
2026-05-04 11:50 26.80142 49.18218 27722 ft 525 kts 104°
2026-05-04 11:50 26.79407 49.22196 27151 ft 519 kts 104°
2026-05-04 11:50 26.78680 49.26122 26527 ft 511 kts 104°
2026-05-04 11:51 26.77959 49.30012 25938 ft 508 kts 104°
2026-05-04 11:51 26.77247 49.33849 25404 ft 499 kts 104°
2026-05-04 11:51 26.76530 49.37647 24851 ft 496 kts 105°
2026-05-04 11:51 26.75622 49.41322 24249 ft 486 kts 110°
2026-05-04 11:52 26.74557 49.44861 23587 ft 472 kts 111°
2026-05-04 11:52 26.73494 49.48303 22513 ft 464 kts 111°
2026-05-04 11:52 26.72439 49.51728 21473 ft 468 kts 111°
2026-05-04 11:52 26.71393 49.55171 20862 ft 465 kts 111°
2026-05-04 11:53 26.70371 49.58578 20428 ft 458 kts 110°
2026-05-04 11:53 26.69369 49.61931 19986 ft 452 kts 110°
2026-05-04 11:53 26.68374 49.65253 19480 ft 448 kts 111°
2026-05-04 11:53 26.67384 49.68542 18958 ft 445 kts 111°
2026-05-04 11:55 26.59730 49.90287 15153 ft 410 kts 140°
2026-05-04 11:55 26.57460 49.92127 14922 ft 401 kts 156°
2026-05-04 11:56 26.54850 49.93191 14698 ft 399 kts 172°
2026-05-04 11:56 26.52099 49.93423 14466 ft 395 kts 188°
2026-05-04 11:56 26.49442 49.92800 14238 ft 387 kts 204°
2026-05-04 11:56 26.47100 49.91396 13996 ft 379 kts 220°
2026-05-04 11:57 26.45235 49.89373 13763 ft 372 kts 234°
2026-05-04 11:57 26.43932 49.86905 13561 ft 368 kts 249°
2026-05-04 11:57 26.43232 49.84179 13299 ft 365 kts 261°
2026-05-04 11:57 26.43010 49.81404 13043 ft 363 kts 271°
2026-05-04 11:58 26.43444 49.78622 12770 ft 356 kts 287°
2026-05-04 11:58 26.44248 49.76030 12548 ft 361 kts 288°
2026-05-04 11:58 26.45063 49.73362 12297 ft 365 kts 288°
2026-05-04 11:58 26.45868 49.70670 12045 ft 365 kts 288°
2026-05-04 11:59 26.46656 49.67992 11819 ft 360 kts 288°
2026-05-04 11:59 26.47421 49.65369 11567 ft 350 kts 287°
2026-05-04 11:59 26.48158 49.62827 11313 ft 339 kts 288°
2026-05-04 11:59 26.48872 49.60357 11078 ft 328 kts 288°
2026-05-04 12:00 26.49830 49.58125 10818 ft 316 kts 305°
2026-05-04 12:00 26.51322 49.56376 10573 ft 309 kts 321°
2026-05-04 12:00 26.53176 49.55201 10343 ft 304 kts 334°
2026-05-04 12:00 26.55153 49.54434 10108 ft 298 kts 342°
2026-05-04 12:01 26.57175 49.53998 9874 ft 294 kts 351°
2026-05-04 12:01 26.59203 49.53967 9628 ft 290 kts
2026-05-04 12:02 26.67408 49.62875 8772 ft 308 kts 75°
2026-05-04 12:03 26.67719 49.65247 8747 ft 308 kts 85°
2026-05-04 12:03 26.67510 49.67615 8821 ft 306 kts 105°
2026-05-04 12:03 26.66839 49.69891 8922 ft 312 kts 108°
2026-05-04 12:03 26.66143 49.72205 8969 ft 315 kts 107°
2026-05-04 12:04 26.65449 49.74535 8972 ft 316 kts 107°
2026-05-04 12:04 26.64762 49.76861 8964 ft 314 kts 107°
2026-05-04 12:04 26.64084 49.79179 8984 ft 313 kts 107°
2026-05-04 12:04 26.63410 49.81495 8985 ft 314 kts 107°
2026-05-04 12:05 26.62733 49.83818 8979 ft 315 kts 107°
2026-05-04 12:05 26.62056 49.86145 8981 ft 315 kts 107°
2026-05-04 12:05 26.61371 49.88472 8968 ft 315 kts 107°
2026-05-04 12:05 26.60681 49.90800 8984 ft 315 kts 107°
2026-05-04 12:06 26.59993 49.93123 8986 ft 315 kts 107°
2026-05-04 12:06 26.59303 49.95450 8984 ft 315 kts 107°
2026-05-04 12:06 26.58601 49.97766 8994 ft 315 kts 108°
2026-05-04 12:06 26.57890 50.00058 8969 ft 316 kts 108°
2026-05-04 12:07 26.57193 50.02303 8987 ft 315 kts 108°
2026-05-04 12:07 26.56482 50.04622 8991 ft 315 kts 107°
2026-05-04 12:07 26.55782 50.06941 8978 ft 315 kts 107°
2026-05-04 12:07 26.55082 50.09263 8995 ft 315 kts 107°
2026-05-04 12:08 26.54382 50.11585 8981 ft 315 kts 107°
2026-05-04 12:08 26.53682 50.13904 8978 ft 315 kts 107°
2026-05-04 12:08 26.52980 50.16225 8979 ft 315 kts 107°
2026-05-04 12:08 26.52281 50.18533 9000 ft 314 kts 107°
2026-05-04 12:09 26.51587 50.20852 8989 ft 315 kts 107°
2026-05-04 12:09 26.50899 50.23173 8984 ft 315 kts 107°
2026-05-04 12:09 26.50210 50.25500 8993 ft 316 kts 107°
2026-05-04 12:09 26.49520 50.27829 8990 ft 316 kts 107°
2026-05-04 12:10 26.48827 50.30165 8990 ft 317 kts 107°
2026-05-04 12:10 26.48132 50.32506 8993 ft 318 kts 107°
2026-05-04 12:10 26.47439 50.34838 8993 ft 317 kts 107°
2026-05-04 12:10 26.46743 50.37175 8928 ft 318 kts 107°
2026-05-04 12:11 26.46042 50.39530 8605 ft 321 kts 107°
2026-05-04 12:11 26.45343 50.41876 8274 ft 313 kts 107°
2026-05-04 12:11 26.44659 50.44166 7979 ft 310 kts 106°
2026-05-04 12:11 26.43979 50.46442 7698 ft 308 kts 106°
2026-05-04 12:12 26.43304 50.48705 7425 ft 307 kts 106°
2026-05-04 12:12 26.42629 50.50961 7150 ft 305 kts 106°
2026-05-04 12:12 26.41968 50.53174 6880 ft 304 kts 105°
2026-05-04 12:12 26.41300 50.55405 6595 ft 302 kts 105°
2026-05-04 12:13 26.40636 50.57625 6325 ft 301 kts 105°
2026-05-04 12:14 26.36118 50.72145 4987 ft 250 kts 117°
2026-05-04 12:15 26.35179 50.73801 5002 ft 255 kts 120°
2026-05-04 12:15 26.34198 50.75436 4968 ft 251 kts 121°
2026-05-04 12:15 26.33234 50.77046 4801 ft 248 kts 120°
2026-05-04 12:15 26.32284 50.78650 4581 ft 246 kts 120°
2026-05-04 12:16 26.31349 50.80244 4349 ft 245 kts 119°
2026-05-04 12:16 26.30434 50.81816 4122 ft 244 kts 119°
2026-05-04 12:16 26.29512 50.83407 3931 ft 243 kts 118°
2026-05-04 12:16 26.28600 50.84983 3743 ft 241 kts 118°
2026-05-04 12:17 26.27693 50.86552 3549 ft 240 kts 118°
2026-05-04 12:17 26.26791 50.88112 3326 ft 239 kts 118°
2026-05-04 12:17 26.25669 50.89469 3016 ft 243 kts 148°
2026-05-04 12:17 26.24058 50.89974 3027 ft 247 kts 181°
2026-05-04 12:18 26.22940 50.89769 2998 ft 243 kts 202°
2026-05-04 12:18 26.21456 50.88980 3005 ft 231 kts 211°
2026-05-04 12:18 26.20077 50.88112 3042 ft 227 kts 212°
2026-05-04 12:18 26.18710 50.87236 3018 ft 225 kts 215°
2026-05-04 12:19 26.17633 50.86034 2866 ft 218 kts 249°
2026-05-04 12:19 26.17281 50.84448 2738 ft 208 kts 270°
2026-05-04 12:19 26.17190 50.82846 2537 ft 208 kts 272°
2026-05-04 12:19 26.17127 50.81242 2442 ft 207 kts 272°
2026-05-04 12:20 26.17340 50.79714 2159 ft 197 kts 304°
2026-05-04 12:20 26.18146 50.78574 2053 ft 180 kts 314°
2026-05-04 12:20 26.18942 50.77468 2028 ft 188 kts 310°
2026-05-04 12:20 26.19701 50.76251 2011 ft 189 kts 307°
2026-05-04 12:21 26.20376 50.75075 1990 ft 175 kts 307°
2026-05-04 12:21 26.21004 50.73978 1823 ft 163 kts 307°
2026-05-04 12:21 26.21571 50.72986 1640 ft 143 kts 307°
2026-05-04 12:21 26.22105 50.72058 1475 ft 142 kts 306°
2026-05-04 12:22 26.22637 50.71130 1292 ft 142 kts 306°
2026-05-04 12:22 26.23170 50.70198 1106 ft 143 kts 306°
2026-05-04 12:22 26.23707 50.69262 936 ft 143 kts 305°
2026-05-04 12:22 26.24232 50.68337 775 ft 138 kts 304°
2026-05-04 12:23 26.24742 50.67433 628 ft 138 kts 303°
2026-05-04 12:23 26.25265 50.66525 428 ft 140 kts 304°
2026-05-04 12:23 26.25789 50.65616 241 ft 141 kts 304°
2026-05-04 12:23 26.26319 50.64685 42 ft 139 kts 304°
2026-05-04 12:24 26.26789 50.63875 23 ft 108 kts 302°
2026-05-04 12:24 26.27110 50.63316 19 ft 63 kts 303°
2026-05-04 12:24 26.27247 50.63036 23 ft 23 kts 283°
2026-05-04 12:24 26.27255 50.62856 23 ft 23 kts 272°
2026-05-04 12:25 26.27284 50.62681 25 ft 23 kts 298°
2026-05-04 12:25 26.27371 50.62529 26 ft 23 kts 303°
2026-05-04 12:25 26.27458 50.62377 21 ft 23 kts 302°
2026-05-04 12:25 26.27520 50.62270 20 ft 15 kts 303°
2026-05-04 12:26 26.27497 50.62178 19 ft 10 kts 224°
2026-05-04 12:26 26.27471 50.62111 24 ft 10 kts 238°
2026-05-04 12:26 26.27443 50.62085 22 ft 2 kts 212°
2026-05-04 12:26 26.27432 50.62078 25 ft 2 kts 212°
2026-05-04 12:27 26.27421 50.62070 23 ft 2 kts 212°
2026-05-04 12:27 26.27418 50.62069 22 ft 0 kts 212°